[[{"header":{"parameterUnit":"m.s-1","parameterCategory":1,"la1":30.2991,"la2":30.254,"lo1":-89.0895,"lo2":-89.0444,"dy":0.0017,"dx":0.0017,"nx":28,"ny":28,"refTime":"2025-06-14T03:00:00:Z","depth":0,"parameterNumber":2,"parameterNumberName":"U-component_of_WINDS"},"data":[0,0,0,0,0,0,0,0,0,0,0,0,0,0,0,0,0,0,0,0,0,0,0,0,0,0,0,0,0,0,0,0,0,0,0,0,0,0,0,0,0,0,0,0,0,0,0,0,0,0,0,0,0,0,0,0,0,0,0.3728,0.3728,0,0.3787,0.3788,0.3789,0.3772,0.3771,0.377,0.3769,0.383,0.3832,0.3835,0,0,0,0,0,0,0,0,0,0,0,0,0,0.3601,0.3603,0.3728,0.3728,0.3729,0.3787,0.3788,0.3789,0.3772,0.3771,0.3769,0.3768,0.3829,0.3832,0.3835,0,0,0,0,0,0,0,0,0,0,0,0,0,0.3658,0.3604,0.3727,0.3728,0.3728,0.3787,0.3788,0.3789,0.3773,0.3771,0.3769,0.3767,0.3828,0.3832,0.3836,0.3897,0,0,0.3848,0.385,0,0,0,0,0,0,0,0,0.3655,0.3662,0.3727,0.3728,0.3729,0.377,0.3766,0.3825,0.3773,0.3756,0.3769,0.3766,0.3811,0.3817,0.3832,0.39,0.3903,0.3849,0.3851,0.3853,0.3854,0,0,0,0,0,0,0,0.3651,0.366,0.3751,0.3728,0.3729,0.3726,0.3732,0.3777,0.3793,0.3757,0.3756,0.3764,0.3811,0.3828,0.3833,0.3904,0.3849,0.3852,0.3855,0.3856,0.4029,0.4031,0,0,0,0,0,0,0.3646,0.3657,0.3749,0.3753,0.3686,0.3729,0.3736,0.3759,0.3793,0.3796,0.3765,0.3763,0.3822,0.3828,0.3835,0.3912,0.3853,0.3857,0.3859,0.4027,0.403,0.4032,0,0,0,0,0,0,0.3643,0.3654,0.3747,0.3705,0.3716,0.3734,0.3759,0.3761,0.3777,0.3798,0.3801,0.3779,0.3821,0.3829,0.3883,0.3914,0.3859,0.3862,0.4025,0.4028,0.4031,0.4064,0,0,0,0,0,0,0.364,0.3654,0.3677,0.3705,0.3718,0.3793,0.3761,0.3764,0.3785,0.3782,0.3812,0.3815,0.382,0.3877,0.3887,0.3918,0.3866,0.4022,0.4026,0.403,0.4061,0.4068,0.4075,0,0,0,0,0,0.3635,0.3683,0.3678,0.3689,0.3748,0.3795,0.3802,0.3807,0.3787,0.3811,0.3825,0.3814,0.3909,0.3882,0.3894,0.3927,0.402,0.4025,0.403,0.4057,0.4067,0.4075,0,0,0,0,0,0,0.3656,0.3686,0.3681,0.3739,0.3765,0.3792,0.3822,0.3816,0.3847,0.3843,0.3847,0.3854,0.391,0.3923,0.3894,0.399,0.3962,0.3969,0.3979,0.3988,0.3995,0.3991,0.3869,0,0,0,0,0,0.3668,0.3703,0.3728,0.3777,0.379,0.3804,0.3824,0.3826,0.3852,0.3863,0.3881,0.3907,0.3943,0.3966,0.4,0.4063,0.407,0.4091,0.4099,0.4104,0.4111,0.4148,0.4158,0.4048,0.4048,0.4048,0,0,0.3691,0.3713,0.3734,0.3782,0.3801,0.3839,0.3813,0.3853,0.3881,0.3869,0.3921,0.3935,0.3965,0.4024,0.4051,0.4037,0.4143,0.411,0.4115,0.4118,0.4154,0.4164,0.4173,0.4051,0.4051,0.405,0,0,0.3754,0.3773,0.3817,0.3838,0.3869,0.3879,0.389,0.3918,0.3928,0.398,0.3973,0.4007,0.4068,0.409,0.4109,0.4185,0.4177,0.4195,0.4233,0.4269,0.4278,0.4285,0.4314,0.4324,0.4202,0.4202,0.4202,0,0.378,0.3836,0.384,0.3883,0.3904,0.3896,0.3942,0.3962,0.4002,0.4018,0.4002,0.4081,0.41,0.4166,0.4185,0.42,0.4214,0.4192,0.4276,0.4284,0.4291,0.4319,0.4329,0.4204,0.4204,0.4203,0.4203,0,0.3867,0.3906,0.3938,0.3979,0.4005,0.4048,0.406,0.4086,0.4086,0.4098,0.4153,0.4176,0.4216,0.4231,0.4231,0.4298,0.4289,0.4275,0.4246,0.4304,0.433,0.434,0.4207,0.4206,0.4206,0.4205,0,0,0.3943,0.3988,0.3999,0.4019,0.4054,0.4085,0.4129,0.4169,0.4192,0.422,0.4259,0.4312,0.43,0.4322,0.4325,0.4357,0.4418,0.4339,0.434,0.4354,0.4496,0.4507,0.4519,0.4413,0.4415,0.4416,0.4494,0,0.401,0.4088,0.4095,0.4165,0.4203,0.4197,0.4236,0.4262,0.4275,0.431,0.4324,0.4362,0.4342,0.4356,0.4387,0.4403,0.4446,0.4398,0.445,0.4452,0.4443,0.4532,0.4543,0.4615,0.4504,0.4505,0.4507,0,0.4097,0.4131,0.4205,0.4238,0.4254,0.4289,0.4327,0.436,0.4391,0.4398,0.4425,0.4424,0.4471,0.4442,0.4508,0.4475,0.4497,0.4508,0.4511,0.4517,0.4483,0.4541,0.4638,0.4649,0.4522,0.4521,0.452,0,0.4147,0.4211,0.4264,0.4281,0.432,0.4345,0.4362,0.4391,0.4416,0.445,0.4466,0.4505,0.4527,0.4557,0.4568,0.4545,0.4635,0.4605,0.4643,0.4643,0.4663,0.4661,0.4765,0.4675,0.4675,0.4675,0.4675,0,0.4222,0.4268,0.4287,0.432,0.4373,0.4381,0.4433,0.4449,0.4476,0.4513,0.451,0.4545,0.4557,0.4594,0.4603,0.4658,0.4667,0.4675,0.4677,0.4676,0.4675,0.4691,0.4686,0.4678,0.4677,0.4676,0.4676,0,0.4286,0.43,0.4359,0.4392,0.4402,0.4439,0.4468,0.45,0.4514,0.4561,0.4573,0.4594,0.4638,0.4652,0.4704,0.4711,0.4776,0.4772,0.4765,0.4766,0.4804,0.4801,0.4922,0.494,0.4837,0.4838,0.4839,0,0.4332,0.4368,0.4406,0.4431,0.445,0.449,0.4516,0.4526,0.4553,0.4593,0.4622,0.4666,0.4701,0.4773,0.4793,0.4835,0.4833,0.4873,0.4839,0.4838,0.4836,0.4834,0.4839,0.4879,0.488,0.4881,0.4882,0,0.4414,0.442,0.4457,0.4499,0.453,0.4562,0.4593,0.4614,0.463,0.4661,0.4706,0.4734,0.479,0.4835,0.4877,0.4896,0.4893,0.4893,0.4904,0.4904,0.4899,0.4904,0.4784,0.489,0.4889,0.4888,0.4888,0.4888,0.4472,0.4504,0.4537,0.4579,0.4605,0.4635,0.4668,0.4687,0.4725,0.4772,0.4776,0.4826,0.4859,0.4917,0.4938,0.4978,0.4967,0.4983,0.4987,0.4991,0.4995,0.4892,0.4986,0.4986,0.4986,0.4986,0.4985,0,0.4554,0.4576,0.4615,0.466,0.4695,0.4689,0.4724,0.4753,0.4798,0.4829,0.4865,0.492,0.4964,0.4989,0.5034,0.5061,0.5061,0.5073,0.5071,0.5076,0.5002,0.4988,0.5072,0.5072,0.5072,0.5072,0.5072,0.5072,0.4602,0.4657,0.4668,0.4738,0.4759,0.4809,0.483,0.4859,0.4884,0.4945,0.4982,0.4999,0.5029,0.5076,0.5117,0.5124,0.5141,0.5154,0.516,0.509,0.5081,0.5072,0.506,0.5157,0.5158,0.5231,0.5231,0.5232]},{"header":{"parameterUnit":"m.s-1","parameterCategory":1,"la1":30.2991,"la2":30.254,"lo1":-89.0895,"lo2":-89.0444,"dy":0.0017,"dx":0.0017,"nx":28,"ny":28,"refTime":"2025-06-14T03:00:00:Z","depth":0,"parameterNumber":3,"parameterNumberName":"V-component_of_WINDS"},"data":[0,0,0,0,0,0,0,0,0,0,0,0,0,0,0,0,0,0,0,0,0,0,0,0,0,0,0,0,0,0,0,0,0,0,0,0,0,0,0,0,0,0,0,0,0,0,0,0,0,0,0,0,0,0,0,0,0,0,3.2645,3.2648,0,3.2906,3.2909,3.2911,3.2872,3.2868,3.2864,3.2859,3.3126,3.3137,3.3148,0,0,0,0,0,0,0,0,0,0,0,0,0,3.2114,3.2124,3.2645,3.2648,3.2652,3.2905,3.2909,3.2912,3.2873,3.2868,3.2862,3.2857,3.3122,3.3136,3.3149,0,0,0,0,0,0,0,0,0,0,0,0,0,3.2357,3.2128,3.2645,3.2663,3.2667,3.2904,3.2909,3.2913,3.2874,3.2868,3.2861,3.2855,3.3118,3.3134,3.3151,3.3387,0,0,3.3202,3.321,0,0,0,0,0,0,0,0,3.2343,3.2376,3.2657,3.2662,3.2667,3.285,3.2819,3.3072,3.2876,3.2796,3.2859,3.2852,3.304,3.3062,3.3126,3.34,3.3411,3.3204,3.3214,3.3221,3.3226,0,0,0,0,0,0,0,3.2326,3.2365,3.2748,3.2661,3.2667,3.2658,3.2685,3.2867,3.2951,3.2802,3.28,3.2831,3.3041,3.311,3.3132,3.3415,3.3203,3.3218,3.3229,3.3235,3.3895,3.3902,0,0,0,0,0,0,3.2305,3.2351,3.274,3.2756,3.2486,3.2673,3.2703,3.2798,3.2949,3.2966,3.2837,3.2828,3.3084,3.3112,3.3141,3.3427,3.3221,3.3237,3.3247,3.3887,3.3896,3.3904,0,0,0,0,0,0,3.2293,3.234,3.2729,3.2553,3.2602,3.2689,3.2796,3.2806,3.2875,3.2975,3.299,3.2891,3.308,3.3117,3.3326,3.3436,3.3244,3.326,3.3878,3.389,3.39,3.4001,0,0,0,0,0,0,3.2278,3.2336,3.2426,3.2556,3.2612,3.2911,3.2802,3.2816,3.2904,3.2896,3.3031,3.3047,3.3078,3.3301,3.3343,3.3455,3.3273,3.3869,3.3884,3.3897,3.3988,3.4014,3.4036,0,0,0,0,0,3.2259,3.2445,3.2431,3.2478,3.2727,3.2917,3.2949,3.2981,3.2913,3.3005,3.3069,3.3042,3.3417,3.3323,3.3369,3.3489,3.3862,3.388,3.3896,3.3977,3.4009,3.4036,0,0,0,0,0,0,3.2326,3.2462,3.2449,3.2681,3.2788,3.291,3.3027,3.3014,3.3142,3.3129,3.3163,3.3194,3.3405,3.3468,3.3361,3.3725,3.363,3.3657,3.3676,3.3707,3.3731,3.3711,3.3287,0,0,0,0,0,3.2368,3.2511,3.2622,3.2816,3.287,3.294,3.3024,3.3039,3.3151,3.3196,3.3276,3.3385,3.3528,3.3621,3.3757,3.3997,3.4025,3.4102,3.4126,3.4145,3.4168,3.4298,3.4334,3.3959,3.3959,3.3959,0,0,3.2456,3.2548,3.2636,3.2832,3.2916,3.3064,3.2978,3.3137,3.3247,3.322,3.3422,3.3485,3.3609,3.3834,3.3937,3.3893,3.4277,3.4166,3.4181,3.4194,3.4319,3.4355,3.4386,3.3971,3.3968,3.3967,0,0,3.2691,3.2775,3.2946,3.3032,3.3161,3.3206,3.3247,3.3372,3.3412,3.3615,3.3598,3.3729,3.3973,3.4063,3.414,3.4409,3.4389,3.4453,3.4578,3.4705,3.4735,3.4761,3.4857,3.4891,3.4475,3.4475,3.4475,0,3.2784,3.3005,3.3035,3.3198,3.3284,3.3266,3.344,3.3522,3.3689,3.3749,3.3697,3.4003,3.4086,3.4331,3.4397,3.446,3.4508,3.4438,3.4728,3.4755,3.478,3.4871,3.4907,3.4482,3.4481,3.4481,3.448,0,3.3113,3.3267,3.339,3.3551,3.3652,3.3819,3.3874,3.3972,3.3979,3.4029,3.4235,3.4334,3.449,3.4549,3.4557,3.4796,3.4764,3.472,3.4626,3.4822,3.4908,3.4944,3.4492,3.449,3.4487,3.4486,0,0,3.3398,3.3574,3.3619,3.3692,3.3833,3.3952,3.4118,3.427,3.4354,3.4469,3.4609,3.4816,3.4776,3.4864,3.4882,3.4993,3.5199,3.4935,3.4939,3.4981,3.5468,3.55,3.554,3.5187,3.5193,3.5199,3.5457,0,3.3646,3.394,3.3972,3.4233,3.4376,3.4361,3.4505,3.4607,3.4658,3.4786,3.4842,3.4989,3.4924,3.4977,3.5087,3.5151,3.5298,3.5133,3.5317,3.5323,3.5286,3.5586,3.5621,3.586,3.5491,3.5497,3.5501,0,3.3976,3.4101,3.4377,3.4498,3.4559,3.4688,3.483,3.4953,3.5068,3.5097,3.5195,3.5199,3.5369,3.5268,3.5503,3.539,3.5467,3.551,3.552,3.5539,3.5424,3.5612,3.5937,3.5973,3.5555,3.5551,3.5547,0,3.4155,3.4393,3.4589,3.4652,3.4798,3.4889,3.4954,3.5063,3.5152,3.5276,3.5335,3.5477,3.5555,3.5665,3.5706,3.5629,3.5939,3.5842,3.5968,3.5967,3.6034,3.603,3.6376,3.6084,3.6084,3.6083,3.6082,0,3.443,3.4599,3.4671,3.4792,3.4981,3.5016,3.5202,3.5263,3.536,3.5491,3.5487,3.561,3.5657,3.5789,3.5822,3.6011,3.6047,3.6075,3.6082,3.6076,3.6072,3.6126,3.6111,3.6093,3.6091,3.6089,3.6087,0,3.4662,3.4718,3.493,3.5051,3.5085,3.5219,3.5323,3.5439,3.5488,3.5655,3.5696,3.5773,3.5927,3.5979,3.6166,3.6188,3.6409,3.6401,3.637,3.6371,3.6495,3.6482,3.6888,3.6943,3.6615,3.6618,3.6621,0,3.4834,3.4964,3.5099,3.5186,3.5255,3.5397,3.5488,3.5527,3.5623,3.5763,3.5862,3.6015,3.614,3.6386,3.6459,3.6601,3.6597,3.673,3.6619,3.6608,3.6599,3.6591,3.6604,3.675,3.6754,3.6757,3.6759,0,3.5132,3.5153,3.5284,3.5427,3.5536,3.5649,3.5759,3.5831,3.5887,3.5994,3.6151,3.6248,3.6438,3.659,3.6735,3.6802,3.679,3.6793,3.683,3.6825,3.6801,3.6815,3.6426,3.6784,3.6781,3.678,3.6778,3.6777,3.5339,3.5454,3.5566,3.5714,3.58,3.5903,3.6018,3.6082,3.6214,3.6372,3.6387,3.6557,3.6668,3.6862,3.6935,3.7068,3.7031,3.7084,3.7098,3.7111,3.712,3.678,3.7095,3.7094,3.7094,3.7093,3.7093,0,3.5636,3.5708,3.5843,3.5997,3.6113,3.6092,3.6212,3.631,3.646,3.6565,3.6687,3.6868,3.7015,3.7099,3.7245,3.7336,3.7334,3.7373,3.7367,3.7382,3.7145,3.7098,3.7372,3.7372,3.7372,3.7372,3.7372,3.7371,3.5805,3.5998,3.6032,3.6267,3.6338,3.6505,3.6575,3.667,3.6753,3.6956,3.7078,3.7132,3.7228,3.7382,3.7516,3.7536,3.759,3.7633,3.765,3.7427,3.7399,3.7371,3.7328,3.7645,3.7645,3.7876,3.7878,3.788]}]]